Theta_e
315 318 322 323 314 313 317 319 318 316 318 321 337 338 344 344 349 349 349 352 353 354 355 345 343 344 341 337 336 334 332 330 323 321 321 322 323 327 331 332 328 327 325 331 334 333 332 331 335
316 320 322 319 312 314 315 315 315 316 319 319 323 338 341 345 347 346 349 349 352 351 349 345 343 340 339 337 334 333 332 331 326 321 322 322 324 327 330 330 327 325 324 329 332 333 331 329 328
316 322 321 310 309 314 315 316 313 315 318 318 329 335 338 338 342 347 348 349 349 351 348 345 342 339 338 336 332 331 332 332 329 325 322 323 324 327 329 329 326 325 326 328 329 331 331 328 329
321 323 318 315 318 317 317 315 313 314 320 323 330 332 333 331 340 344 349 351 352 352 349 346 343 340 338 335 332 331 332 333 331 329 323 323 324 327 329 328 327 325 328 327 327 325 324 326 330
319 318 313 315 317 316 315 314 314 314 316 317 328 330 326 327 342 345 348 351 352 351 350 348 345 343 339 336 333 331 331 332 332 331 329 323 324 326 327 327 327 325 326 326 327 328 328 331 327
316 314 312 314 315 314 313 314 315 314 317 318 319 322 319 317 337 345 352 352 353 354 351 350 347 345 342 338 335 333 332 332 332 331 330 327 323 325 325 325 325 326 326 326 329 332 330 327 324
312 310 312 314 314 315 314 315 315 314 315 317 318 320 318 317 319 348 349 355 356 356 354 350 349 348 345 340 336 335 334 333 332 331 330 330 324 324 325 324 324 325 327 328 328 326 325 323 320
316 307 313 312 313 314 314 315 316 316 316 317 317 315 316 317 317 324 351 351 355 358 358 353 350 349 348 345 339 337 336 335 334 331 330 329 328 324 325 325 323 323 326 328 324 323 322 323 322
315 307 309 313 314 314 314 313 316 316 316 316 316 316 316 316 317 317 330 333 331 340 357 357 354 351 349 348 345 338 337 337 336 334 330 328 327 326 325 326 325 323 323 328 327 325 323 324 322
309 306 311 311 313 313 313 314 315 315 315 315 316 316 316 316 316 317 317 319 334 337 345 351 354 356 354 352 350 344 338 338 338 336 332 329 327 326 326 325 326 326 322 324 328 325 324 325 323
310 310 311 313 315 314 312 313 314 315 313 316 315 316 316 317 317 317 317 317 317 329 344 347 348 349 351 352 350 350 344 339 338 338 335 332 328 326 325 325 326 327 325 322 325 325 324 324 322
313 313 313 315 315 314 312 314 313 314 315 315 315 316 316 317 317 317 317 317 317 317 317 319 337 345 346 345 342 349 351 348 343 338 337 335 331 328 325 323 323 325 325 324 322 324 324 324 322
312 313 314 315 314 314 314 314 313 315 315 315 315 315 315 315 316 317 317 318 318 318 317 317 327 341 335 335 339 345 351 351 348 340 337 336 335 332 328 325 323 323 324 324 323 322 325 329 332
314 313 314 315 313 313 313 313 313 314 314 315 315 315 315 315 316 316 316 316 317 318 318 317 322 324 327 332 335 335 349 348 346 342 339 337 336 335 331 328 325 323 323 323 323 323 326 329 336
314 313 311 312 312 311 313 312 312 315 315 315 315 316 316 316 315 315 316 316 316 317 318 317 317 318 318 328 333 332 336 333 337 347 346 346 344 337 333 330 328 324 325 327 336 332 328 328 337
310 308 309 309 309 312 313 310 310 315 314 314 315 315 316 316 316 315 316 316 317 317 318 318 318 317 317 326 329 331 327 322 324 325 333 340 345 346 343 334 330 327 326 333 339 333 336 338 338
306 310 311 308 310 309 312 311 312 315 314 313 315 315 315 317 318 317 316 317 316 316 316 317 317 317 316 324 327 326 326 328 333 327 326 328 337 342 344 342 336 330 326 336 340 341 341 340 340
311 310 308 308 310 310 310 309 309 314 313 312 313 315 319 319 320 319 318 318 316 316 316 317 317 316 317 318 323 326 328 327 327 323 322 323 329 335 340 343 343 339 330 333 339 341 342 341 340
310 309 308 308 309 311 310 309 309 312 312 311 318 319 319 320 320 319 319 319 319 318 317 317 317 317 317 317 318 326 325 323 326 322 321 325 321 322 334 336 343 343 340 333 340 342 342 342 340
310 312 310 310 310 312 310 312 310 309 311 316 319 319 319 319 320 320 320 320 320 320 320 318 317 318 317 317 318 319 322 323 323 325 325 320 319 321 324 327 330 335 342 339 337 343 343 342 340
312 312 311 311 311 311 310 310 312 311 314 318 319 319 318 318 318 319 321 321 320 320 319 319 318 318 318 317 318 319 321 326 329 324 318 319 320 320 327 336 335 335 332 337 340 339 343 342 340
313 311 311 312 312 311 311 311 309 312 313 316 319 319 318 318 317 317 319 322 322 320 319 318 319 318 318 317 319 318 318 318 326 318 319 318 318 325 327 331 337 340 340 340 343 341 340 341 341
312 312 312 312 310 309 310 310 310 312 316 317 318 319 319 318 318 317 317 318 322 323 321 318 318 318 319 318 319 321 319 324 321 321 320 319 320 323 325 330 329 332 339 339 339 337 338 340 341
312 311 309 305 306 309 310 312 310 311 317 318 318 319 319 319 319 318 318 317 318 321 323 323 321 319 319 318 319 319 321 323 321 323 321 320 322 322 322 326 329 331 333 336 340 340 340 341 340
310 308 309 309 308 308 310 311 311 311 317 318 318 319 318 318 318 319 318 317 317 318 321 324 325 321 321 320 318 321 323 322 321 323 324 322 323 322 323 323 325 331 335 339 340 339 341 339 338
312 309 308 314 312 312 311 311 311 314 319 319 320 319 316 315 318 318 319 318 316 317 317 320 324 326 324 322 323 323 322 322 323 323 326 326 325 322 322 323 323 326 341 342 342 339 335 334 334
311 311 308 311 309 309 309 311 310 318 317 318 318 317 316 312 315 318 319 319 316 317 317 317 319 324 324 323 324 324 324 324 325 326 327 327 324 325 324 325 322 325 335 339 334 334 334 333 333
312 309 310 307 311 314 312 311 310 313 317 317 314 315 313 312 314 317 317 318 316 316 316 316 317 317 322 324 324 323 323 322 321 321 322 326 328 326 325 323 330 335 336 336 336 338 335 332 331
312 311 310 311 310 313 315 311 309 315 314 313 313 311 313 314 315 317 317 316 315 314 316 315 316 317 317 317 321 323 323 323 322 321 320 319 325 329 325 322 332 333 333 334 335 337 335 332 333
311 310 309 309 308 310 308 314 310 309 312 313 311 312 313 312 313 315 317 317 316 313 315 314 315 316 316 316 316 320 322 321 320 322 321 323 327 325 325 327 330 330 334 334 332 333 332 331 326
Wind_Speed
3 2 3 2 3 5 3 3 3 10 9 6 8 3 6 4 2 3 4 3 3 6 17 23 20 19 17 15 13 12 11 9 9 10 11 13 13 14 14 13 13 13 14 15 13 11 9 7 7
1 2 2 2 5 4 3 4 7 7 13 18 6 3 3 2 2 4 3 1 2 5 19 22 20 17 16 14 12 11 10 9 8 9 10 12 13 14 14 13 13 13 14 14 12 10 8 6 5
2 2 3 4 3 3 0 5 8 13 13 4 2 7 2 5 5 2 3 2 1 8 21 21 18 17 15 13 12 12 11 10 9 9 10 11 12 13 14 14 13 14 13 13 11 10 8 7 5
3 3 5 4 3 1 2 6 9 14 13 17 4 6 7 13 6 4 2 2 4 6 20 20 18 16 15 13 12 12 11 11 10 9 9 11 12 13 14 14 14 14 13 12 11 10 9 8 6
6 4 4 3 2 1 4 6 11 7 10 16 7 4 6 20 5 3 1 1 3 2 16 19 17 16 15 14 13 12 12 12 11 10 10 11 12 13 14 15 14 14 13 12 11 10 9 8 7
4 4 4 2 1 4 5 11 7 11 13 23 14 3 6 20 7 4 2 2 0 2 5 17 18 15 15 14 13 13 13 13 12 12 12 11 12 13 14 14 14 14 13 12 11 10 9 8 7
6 4 4 3 0 2 4 12 4 7 10 15 14 3 4 23 18 3 1 4 5 5 6 11 18 17 16 15 15 15 14 14 13 13 13 12 12 13 14 14 14 14 14 12 10 9 9 8 8
4 4 2 1 1 0 6 9 8 7 4 18 14 3 5 19 21 9 4 4 5 6 8 9 14 18 17 17 17 17 17 16 15 14 14 14 13 14 14 15 14 14 14 13 11 10 9 9 9
3 5 1 1 2 4 5 5 8 9 8 12 12 9 14 16 14 12 5 7 10 10 10 10 11 13 17 18 19 19 19 18 17 16 16 16 15 15 16 16 15 15 15 15 13 11 10 10 11
5 4 2 1 3 2 4 3 6 6 13 9 21 18 20 17 16 15 10 8 11 13 12 12 12 12 14 17 19 21 22 22 21 19 18 17 17 17 17 17 17 16 16 16 15 13 12 12 12
2 3 2 0 3 9 2 1 5 4 7 24 23 26 20 19 18 17 16 12 9 11 14 16 17 16 15 15 15 19 22 23 23 22 20 19 19 18 18 19 19 18 17 17 17 14 13 12 13
4 2 2 5 9 7 6 7 6 5 9 20 23 22 23 25 26 22 18 18 13 14 14 18 22 20 18 18 18 19 21 23 25 25 23 22 21 19 19 20 19 20 19 17 17 15 14 14 14
4 2 7 13 9 6 6 11 5 14 20 24 26 25 25 25 25 25 25 25 23 22 19 18 19 22 20 20 20 20 21 23 22 23 24 23 22 20 20 19 20 21 20 19 16 16 15 14 14
5 8 11 2 8 4 3 2 2 17 20 32 30 30 30 29 26 24 23 25 26 27 24 20 20 21 24 23 21 20 20 18 18 21 23 24 23 22 21 21 20 20 20 18 18 17 17 18 17
5 6 5 5 9 6 11 3 5 23 31 34 32 30 29 30 30 28 26 28 27 27 26 23 24 22 23 25 23 20 17 14 15 16 19 22 21 22 22 23 23 20 18 17 16 17 18 18 16
6 6 6 8 8 3 9 8 7 29 32 34 36 33 35 34 32 27 26 24 24 26 27 26 26 24 25 27 24 22 18 13 12 13 17 23 25 26 24 24 24 22 20 18 17 16 16 15 17
8 4 5 9 6 4 4 10 14 34 33 33 33 37 30 30 29 24 23 24 27 28 29 29 31 27 22 24 25 24 24 20 16 15 17 19 22 25 27 24 23 23 22 21 20 18 17 17 17
5 4 5 6 6 1 4 8 9 33 27 26 25 20 21 25 24 26 22 24 31 34 30 30 32 30 25 23 25 24 23 23 23 20 18 16 18 20 23 27 24 22 24 25 23 22 20 18 16
3 4 7 6 7 3 8 7 12 26 22 13 16 21 23 24 23 26 24 22 25 30 34 31 33 35 30 26 26 26 27 27 24 21 19 18 19 19 23 25 25 27 26 27 24 24 24 23 20
5 5 7 6 4 2 9 14 13 10 5 5 14 20 23 25 24 28 29 26 27 22 28 31 29 34 33 29 26 24 26 24 24 19 17 15 18 20 22 26 26 27 30 28 30 26 26 25 24
4 4 4 6 4 5 5 7 1 3 3 12 16 18 21 24 28 33 32 30 30 19 19 26 21 25 34 30 27 25 20 22 21 11 6 10 15 20 18 19 26 27 27 31 30 29 28 28 26
4 4 5 7 4 6 3 7 4 1 5 5 15 18 22 28 32 36 42 37 31 23 14 13 19 22 28 32 32 23 19 14 14 9 7 10 17 16 17 19 22 23 28 33 32 33 31 26 29
6 4 6 8 4 2 2 1 6 3 3 5 9 15 18 24 29 35 39 42 40 31 18 7 11 15 15 20 28 21 12 12 13 6 6 13 15 15 18 18 22 23 23 29 33 32 26 32 30
4 4 2 4 3 1 3 3 4 3 4 4 6 12 17 22 27 30 32 38 41 41 28 17 8 9 14 18 18 18 13 13 13 7 8 15 16 17 18 21 22 23 25 28 30 31 33 34 32
8 7 5 6 4 4 2 4 8 7 4 5 7 13 18 20 22 25 32 35 36 39 36 25 14 6 4 8 10 15 15 16 12 12 11 15 15 18 18 18 22 23 24 25 27 26 35 35 28
0 5 4 5 3 10 10 7 5 3 5 7 9 12 16 26 23 20 17 30 35 33 32 30 21 17 9 3 8 12 14 16 14 15 14 17 18 20 20 21 21 24 22 23 25 28 29 30 26
3 3 4 3 1 3 4 6 7 0 2 2 8 11 17 29 24 19 18 8 33 35 27 23 22 17 13 9 6 5 1 3 7 13 16 19 20 22 23 25 22 22 21 26 23 23 29 29 27
3 6 0 2 4 5 5 5 5 4 5 6 7 17 26 32 29 18 14 16 22 34 25 14 17 16 14 9 6 4 3 5 9 12 16 20 23 24 25 26 18 18 19 25 29 31 26 26 22
3 1 3 2 4 5 3 6 6 6 8 7 10 23 24 25 25 15 11 15 11 28 23 10 12 15 14 12 9 6 6 8 10 12 18 24 25 24 27 22 15 18 19 25 26 31 30 26 23
4 6 7 4 6 5 3 12 5 7 2 5 10 15 20 19 16 14 17 17 10 16 18 12 8 10 10 9 8 7 8 10 12 14 17 21 24 24 23 14 15 17 21 25 26 32 25 25 25
Wind_Direction
322 337 343 346 56 66 339 45 287 319 331 341 354 248 158 87 155 211 128 173 230 238 201 189 190 190 187 193 199 198 198 198 192 188 188 188 187 182 181 178 178 178 176 175 171 165 159 155 165
273 343 2 59 79 60 306 276 326 259 290 303 250 205 7 73 42 132 116 112 223 206 187 188 189 194 191 193 198 199 198 198 194 188 189 189 188 187 185 182 183 183 183 183 181 181 176 167 171
74 39 32 84 94 117 349 320 294 307 348 288 165 86 70 6 23 27 26 107 81 193 192 191 190 196 197 196 200 201 199 200 198 192 192 192 193 193 190 188 188 189 190 191 193 200 201 193 193
100 69 59 78 99 192 342 312 320 335 5 15 38 50 62 29 351 357 351 41 34 181 194 197 196 199 203 205 207 206 205 207 210 206 200 200 198 198 199 197 196 197 198 200 204 209 209 204 209
64 58 54 71 57 279 274 316 352 346 12 350 21 28 78 17 37 53 128 175 353 167 201 204 204 206 209 211 213 214 214 213 216 216 214 210 205 205 207 205 205 205 205 206 210 210 207 214 217
68 75 61 93 348 307 307 351 4 359 4 19 18 46 58 15 41 69 117 144 58 263 209 211 212 214 219 221 222 223 222 221 222 222 223 221 216 214 214 213 211 210 209 210 213 211 214 219 219
105 74 164 135 75 358 339 350 26 348 360 5 359 37 35 18 15 332 234 229 232 240 240 218 217 220 223 228 230 231 230 229 231 231 229 230 228 224 221 220 218 215 214 215 214 212 212 218 223
76 86 93 23 88 169 337 1 345 9 350 350 19 9 326 6 5 1 325 315 273 239 238 233 226 229 234 237 236 235 235 233 233 235 235 235 233 231 230 228 225 223 221 221 217 217 218 224 233
59 61 49 108 71 285 351 7 345 347 326 339 345 325 327 332 341 355 327 265 277 267 250 234 232 235 240 244 245 242 236 234 234 236 238 239 239 237 236 235 233 230 227 227 225 228 228 229 238
73 84 256 227 324 315 299 305 318 339 326 328 329 335 335 331 332 328 322 318 254 256 252 244 243 245 251 246 246 244 241 240 239 239 242 244 244 244 243 241 240 238 235 234 232 234 235 235 240
106 120 196 227 336 321 270 324 332 296 326 344 323 327 328 331 328 324 318 309 298 270 258 259 257 256 250 252 259 253 247 245 242 242 242 244 247 248 249 246 244 244 241 239 239 241 245 243 240
81 55 27 303 320 325 318 339 340 215 310 352 355 336 320 312 311 312 310 308 299 278 271 270 258 255 253 255 254 255 252 252 250 245 247 249 253 254 257 255 252 249 247 247 245 245 248 245 242
52 306 302 323 346 359 9 351 325 336 349 343 339 335 332 325 312 300 302 301 297 290 282 271 251 250 257 259 256 254 253 257 259 251 250 253 257 259 261 262 258 255 253 250 248 244 245 241 234
301 288 301 5 21 73 24 297 330 336 334 331 332 328 321 318 321 309 301 302 299 290 281 272 242 249 254 258 254 260 260 260 256 250 254 258 260 264 264 262 261 260 259 254 248 243 242 234 236
310 355 349 24 6 14 345 338 340 328 327 325 327 324 324 323 310 306 308 292 294 288 280 265 268 246 246 248 248 255 254 256 261 259 257 265 264 266 264 263 262 260 257 249 245 243 241 238 235
29 46 7 307 345 356 42 284 284 325 324 320 321 322 322 320 317 306 304 298 283 289 283 256 263 266 253 242 245 247 245 254 266 272 272 271 271 265 266 264 260 257 249 242 241 238 239 245 249
12 329 324 317 332 316 63 304 306 320 318 316 320 325 329 328 321 310 297 295 289 282 283 277 256 259 262 239 238 244 250 253 261 271 273 275 284 280 267 264 264 257 247 242 241 243 250 254 257
277 304 268 259 290 270 300 265 290 302 310 307 320 331 332 327 335 339 321 295 282 281 276 273 259 253 248 237 239 244 252 257 256 259 277 284 285 294 286 273 264 257 252 238 240 243 248 259 253
216 227 252 257 266 220 256 261 270 281 302 331 353 338 332 333 332 337 335 327 298 269 264 262 256 249 240 237 236 234 242 248 251 259 275 275 285 292 285 284 273 256 251 242 237 246 251 254 249
218 250 266 282 257 206 280 286 243 272 289 26 354 351 351 349 354 347 338 335 330 291 281 254 252 244 238 241 236 239 243 245 253 248 259 272 285 285 280 277 273 267 256 247 241 247 248 249 245
264 232 269 252 301 252 296 288 202 301 17 2 11 10 15 12 10 13 4 351 336 318 292 245 243 241 243 240 238 238 242 241 249 243 289 295 287 283 275 265 264 269 264 258 241 242 242 243 245
299 191 253 274 329 285 71 289 294 287 307 2 2 13 20 24 25 22 22 14 355 354 327 256 242 251 243 238 237 232 247 266 250 255 287 325 310 288 272 259 257 265 266 255 253 244 242 237 242
228 288 246 264 246 22 270 1 268 218 301 322 333 355 6 14 20 22 22 23 21 13 6 311 263 260 249 230 244 244 248 248 241 246 315 320 310 306 279 265 257 259 255 253 246 250 244 230 234
303 336 344 50 101 36 229 96 274 259 219 295 300 343 2 4 4 10 16 21 24 20 30 22 25 282 245 226 209 226 243 244 246 237 273 303 314 313 310 278 258 256 257 258 256 252 242 239 233
33 40 332 344 1 238 239 317 241 263 211 222 266 312 336 340 346 352 7 10 10 14 20 38 50 88 142 179 201 227 233 245 270 251 262 292 301 307 314 300 276 263 263 261 252 233 229 230 229
151 142 146 294 268 283 282 244 253 236 183 245 287 301 347 351 339 336 347 355 356 357 1 14 37 61 72 150 218 239 253 264 265 254 267 284 292 297 301 300 290 274 265 266 251 239 230 227 232
191 188 190 219 258 5 241 289 317 68 287 283 280 322 333 341 332 319 322 323 349 352 345 351 12 35 56 73 91 86 76 270 268 270 273 279 283 290 295 297 288 268 262 258 231 231 233 230 232
188 163 6 19 291 267 284 258 242 282 242 263 312 325 329 330 332 306 313 313 342 339 336 337 342 0 24 41 56 65 37 337 316 304 292 286 285 287 293 292 273 267 256 256 252 248 237 233 230
281 243 69 142 166 214 290 262 208 223 245 282 299 327 333 332 339 305 352 352 292 316 329 335 349 336 340 0 358 333 308 300 295 286 290 293 286 290 290 291 267 263 264 256 247 238 224 227 221
173 218 167 158 245 236 202 267 231 259 327 328 316 344 356 354 5 354 300 326 324 338 320 320 347 353 360 359 351 319 299 305 309 298 298 294 287 292 292 292 268 262 259 259 237 221 217 209 181